Вернуться в каталог

IRIDIUM 33 DEB

АктивенPO
NORAD 35806·DEBRIS·🇺🇸 United States

Запущен Sep 14, 1997 с Baikonur Cosmodrome

Loading…

Ближайшие Пролёты (ближайшие 24 часа)

TLE

УстаревающийSource: Space-Track

Эпоха: Sep 6, 2026, 07:31 UTC

1 35806U 97051SQ  26249.31330424  .00002022  00000-0  41871-3 0  9997
2 35806  86.3381 262.5210 0011015 235.2177 124.7997 14.59800011902252

Отслеживайте IRIDIUM 33 DEB в реальном времени с AllMySat

Download on the App Store